Zurück zum Katalog

FENGYUN 1C DEB

AktivPO
NORAD 30888·DEBRIS·🇨🇳 China

Gestartet May 10, 1999 von Taiyuan Satellite Launch Center

Loading…

Nächste Überflüge (nächste 24 Stunden)

TLE

AktuellSource: Space-Track

Epoche: Sep 14, 2026, 08:38 UTC

1 30888U 99025AYA 26257.35980668  .00006303  00000-0  47403-3 0  9992
2 30888  99.4713 300.0399 0069732 349.1341  10.8367 15.01109240 40437

Verfolge FENGYUN 1C DEB in Echtzeit mit AllMySat

Download on the App Store